Vorticity
4 5 3 5 6 4 4 4 3 4 4 5 6 6 5 5 6 6 6 4 5 5 4 3 4 4 4 4 4 4 3 4 3
4 5 4 5 5 4 4 4 3 3 4 5 6 5 5 7 7 6 5 5 5 5 4 2 4 4 4 5 4 3 3 3 4
4 5 4 5 6 5 4 4 3 3 4 4 5 5 5 7 7 6 5 6 5 5 3 4 4 4 4 4 3 4 4 3 3
5 4 5 5 6 5 4 4 4 3 4 4 4 5 5 5 7 6 5 6 5 4 3 4 4 4 5 4 4 4 4 3 3
4 3 4 5 5 5 5 4 4 4 4 4 4 4 4 4 6 6 6 6 5 4 3 4 4 4 4 4 3 3 3 3 4
3 5 5 4 5 5 4 4 4 3 4 4 4 4 5 5 7 6 6 5 5 4 3 4 4 4 4 4 3 3 4 4 4
3 3 4 5 4 5 5 4 4 4 4 4 4 5 6 4 5 5 7 5 4 4 4 4 4 4 4 4 5 4 3 3 5
4 4 4 3 3 4 4 4 4 4 5 5 4 5 5 4 4 4 6 5 4 3 4 3 3 4 4 4 4 4 4 5 4
4 3 7 3 3 3 4 4 4 5 4 5 4 6 4 4 3 4 5 5 4 4 3 3 4 4 4 5 4 3 3 4 3
25 -1 3 2 4 4 4 4 5 5 5 5 5 5 4 5 1 4 5 5 4 3 3 3 3 4 4 5 4 3 3 4 4
-23 -1 4 4 4 4 5 4 5 5 5 4 6 4 5 3 4 4 4 4 5 3 4 3 3 3 4 4 4 3 2 1 2
6 5 5 5 5 5 4 4 5 5 5 3 6 4 -0 -3 6 4 3 4 4 4 3 3 3 3 3 3 4 4 4 4 4
3 4 4 4 4 4 3 4 4 4 5 4 5 5 1 10 6 6 3 4 5 4 4 4 4 4 4 4 4 4 4 4 5
2 4 4 2 2 3 4 4 4 4 4 5 5 7 -3 13 4 5 4 4 4 5 5 5 4 5 4 5 4 5 5 5 6
9 5 1 2 1 2 4 4 4 4 3 8 6 4 -5 -1 7 6 3 6 5 5 5 6 6 6 5 6 5 5 6 6 7
1 -1 4 6 6 6 4 3 3 6 3 4 10 7 -6 -7 8 5 4 6 7 6 6 7 6 6 6 6 5 9 5 8 5
22 15 6 1 0 3 3 4 5 6 10 5 0 5 -2 2 -11 7 4 3 2 2 6 4 4 5 9 5 8 5 6 5 8
14 29 41 22 2 -1 4 6 8 9 6 -6 -3 28 -5 6 9 9 5 3 9 11 11 13 16 12 8 7 5 7 11 11 9
19 -20 1 29 17 13 8 3 15 -10 13 9 13 38 -1 -14 15 6 12 21 15 12 10 0 5 7 9 9 7 8 11 9 5
13 32 5 -9 3 44 13 8 20 5 2 21 5 -3 -6 29 8 2 14 -5 -2 2 -14 1 -1 3 10 8 7 7 9 8 15
Height
5877 5878 5879 5880 5881 5882 5883 5883 5883 5883 5884 5884 5885 5885 5884 5884 5884 5884 5885 5884 5884 5883 5882 5881 5880 5879 5878 5877 5875 5874 5872 5870 5868
5874 5875 5876 5877 5878 5879 5880 5881 5881 5882 5881 5882 5882 5883 5883 5883 5883 5883 5883 5882 5882 5881 5881 5880 5879 5877 5876 5875 5873 5872 5871 5869 5867
5870 5872 5873 5874 5875 5876 5877 5878 5879 5879 5880 5880 5880 5880 5880 5881 5881 5881 5880 5880 5880 5880 5880 5879 5877 5876 5875 5874 5872 5871 5869 5867 5865
5866 5868 5869 5871 5872 5872 5874 5875 5876 5877 5877 5877 5877 5878 5878 5878 5878 5878 5878 5878 5877 5877 5877 5876 5875 5874 5873 5871 5870 5868 5866 5865 5863
5861 5863 5865 5866 5867 5868 5870 5871 5872 5874 5874 5875 5875 5875 5875 5875 5876 5875 5876 5876 5876 5875 5873 5873 5872 5872 5871 5869 5867 5866 5863 5861 5859
5855 5858 5860 5862 5863 5864 5866 5867 5868 5869 5870 5871 5872 5872 5872 5871 5872 5873 5873 5873 5872 5872 5871 5870 5870 5869 5868 5866 5865 5863 5861 5859 5856
5849 5853 5855 5856 5858 5859 5861 5863 5863 5864 5865 5866 5868 5868 5869 5868 5868 5869 5869 5869 5869 5868 5868 5868 5866 5865 5864 5864 5863 5861 5858 5857 5855
5843 5846 5849 5851 5851 5853 5855 5857 5859 5860 5861 5862 5863 5864 5865 5865 5865 5865 5865 5865 5865 5865 5864 5864 5863 5862 5861 5860 5858 5857 5855 5853 5851
5835 5839 5842 5844 5846 5847 5849 5851 5854 5855 5855 5857 5858 5858 5860 5861 5861 5862 5861 5861 5861 5860 5860 5859 5859 5858 5856 5855 5854 5852 5850 5848 5847
5825 5832 5833 5836 5839 5841 5843 5845 5847 5848 5850 5850 5852 5852 5854 5855 5856 5857 5857 5857 5857 5856 5855 5854 5853 5853 5852 5850 5848 5847 5844 5843 5841
5818 5821 5825 5828 5831 5834 5836 5838 5839 5842 5843 5844 5845 5847 5848 5849 5850 5851 5851 5852 5851 5851 5850 5849 5848 5847 5846 5845 5844 5842 5841 5839 5837
5807 5811 5816 5820 5824 5826 5828 5830 5832 5833 5837 5836 5838 5840 5841 5842 5844 5844 5844 5845 5846 5845 5845 5843 5842 5841 5840 5838 5837 5836 5834 5834 5832
5797 5802 5808 5811 5814 5817 5821 5824 5824 5826 5828 5830 5830 5832 5833 5834 5836 5838 5837 5838 5839 5839 5839 5837 5836 5834 5833 5832 5831 5829 5827 5825 5824
5788 5795 5800 5802 5805 5810 5813 5816 5817 5819 5820 5821 5822 5824 5826 5827 5827 5829 5830 5830 5831 5832 5832 5831 5829 5828 5826 5825 5824 5822 5820 5818 5816
5780 5786 5789 5793 5797 5801 5805 5806 5808 5810 5811 5813 5813 5816 5818 5818 5820 5822 5822 5823 5824 5825 5824 5823 5822 5821 5819 5818 5817 5815 5813 5811 5810
5771 5776 5781 5785 5789 5791 5794 5797 5799 5800 5802 5804 5806 5807 5809 5812 5812 5813 5813 5814 5815 5814 5815 5816 5815 5813 5811 5810 5809 5807 5805 5803 5801
5762 5767 5771 5775 5778 5780 5783 5786 5788 5791 5794 5797 5795 5798 5801 5805 5803 5804 5805 5806 5805 5805 5807 5806 5805 5804 5803 5801 5800 5799 5798 5797 5793
5756 5759 5760 5763 5767 5768 5772 5775 5780 5782 5784 5783 5786 5788 5791 5792 5793 5794 5794 5796 5794 5797 5796 5795 5795 5794 5793 5792 5791 5790 5789 5788 5785
5750 5754 5755 5755 5755 5758 5761 5762 5767 5771 5774 5775 5774 5778 5781 5784 5783 5785 5785 5786 5786 5787 5788 5787 5786 5785 5783 5782 5781 5782 5781 5780 5777
5743 5746 5749 5749 5750 5751 5754 5754 5758 5763 5767 5768 5768 5770 5771 5773 5774 5776 5777 5777 5777 5778 5779 5778 5778 5777 5776 5775 5773 5772 5772 5770 5769